This demonstration page uses our WeatherBlox Daily Observations layout. Learn more.

Left ArrowRight Arrow

Hourly Observations for March 26, 2017

Temp ( °F °C ) Dew Point ( °F °C ) Humidity (%) Winds ( mph kmh ) Pressure ( in mb ) Visibility ( mi km ) Precip ( " mm )
12:05 am 00:05 Cloudy 47 8.3 43 6.1 86 86 WSW 10 17 29.94 1014 8 13 0.00 0.00
12:52 am 00:52 Cloudy 47 8.3 43 6.1 86 86 WSW 8 13 29.89 1012 10 16 0.00 0.00
1:52 am 01:52 Cloudy 47 8.3 44 6.7 90 90 SSW 6 9 29.87 1012 10 16 0.00 0.00
2:52 am 02:52 Cloudy 47 8.3 44 6.7 90 90 SW 6 9 29.87 1012 10 16 0.00 0.00
3:52 am 03:52 Cloudy 47 8.3 43 6.1 86 86 W 6 9 29.88 1012 10 16 0.00 0.00
4:18 am 04:18 Cloudy 46 8 43 6 87 87 W 7 11 29.91 1013 10 16 0.00 0.00
4:52 am 04:52 Cloudy 47 8.3 44 6.7 90 90 W 7 11 29.89 1012 10 16 0.00 0.00
5:45 am 05:45 Cloudy 47 8.3 43 6.1 86 86 WSW 9 15 29.94 1014 10 16 0.00 0.00
5:52 am 05:52 Cloudy 47 8.3 44 6.7 90 90 WSW 7 11 29.91 1013 10 16 0.00 0.00
6:52 am 06:52 Cloudy 46 7.8 44 6.7 93 93 WSW 7 11 29.93 1014 8 13 0.00 0.00
7:52 am 07:52 Cloudy 47 8.3 44 6.7 90 90 W 3 6 29.93 1014 10 16 0.00 0.00
8:52 am 08:52 Mostly Cloudy 49 9.4 45 7.2 86 86 E 6 9 29.91 1013 10 16 0.00 0.00
9:27 am 09:27 Partly Cloudy 50 10 45 7.2 83 83 Calm 29.91 1013 10 16 0.00 0.00
9:52 am 09:52 Sunny 51 10.6 46 7.8 83 83 SSW 5 7 29.93 1013 10 16 0.00 0.00
10:39 am 10:39 Mostly Cloudy 55 12.8 47 8.3 74 74 VRB 3 6 29.94 1014 10 16 0.00 0.00
10:52 am 10:52 Mostly Cloudy 55 12.8 47 8.3 74 74 SW 10 17 29.94 1014 10 16 0.00 0.00
11:52 am 11:52 Cloudy 57 13.9 48 8.9 72 72 SW 8 13 29.94 1014 10 16 0.00 0.00
12:17 pm 12:17 Partly Cloudy 58 14.4 48 8.9 70 70 SW 8 13 29.94 1014 10 16 0.00 0.00
12:52 pm 12:52 Partly Cloudy 60 15.6 49 9.4 67 67 W 8 13 29.92 1013 10 16 0.00 0.00
1:52 pm 13:52 Mostly Sunny 62 16.7 50 10 65 65 SSW 9 15 29.91 1013 10 16 0.00 0.00
2:52 pm 14:52 Sunny 64 17.8 50 10 60 60 SW 10 17 29.88 1012 10 16 0.00 0.00
3:52 pm 15:52 Sunny 65 18.3 49 9.4 56 56 VRB 5 7 29.87 1012 10 16 0.00 0.00
4:52 pm 16:52 Sunny 66 18.9 49 9.4 54 54 SW 10 17 29.87 1012 10 16 0.00 0.00
5:52 pm 17:52 Sunny 65 18.3 49 9.4 56 56 ESE 7 11 29.84 1010 10 16 0.00 0.00
6:52 pm 18:52 Sunny 64 17.8 50 10 60 60 ESE 6 9 29.85 1011 10 16 0.00 0.00
7:52 pm 19:52 Clear 63 17.2 49 9.4 60 60 E 8 13 29.83 1010 10 16 0.00 0.00
8:52 pm 20:52 Clear 63 17.2 49 9.4 60 60 E 8 13 29.83 1010 10 16 0.00 0.00
9:52 pm 21:52 Mostly Cloudy 59 15 50 10 72 72 NNW 8 13 29.87 1011 10 16 0.00 0.00
10:33 pm 22:33 Cloudy with Nearby Thunderstorms 57 13.9 52 11.1 83 83 WSW 6 9 29.94 1014 9 14 0.02 0.51
10:48 pm 22:48 Cloudy with Rain 57 14 54 12 88 88 Calm 29.91 1013 4 6 0.00 0.00
10:52 pm 22:52 Cloudy with Rain 58 14.4 53 11.7 84 84 Calm 29.91 1013 5 8 0.07 1.78
11:45 pm 23:45 Cloudy with Thunderstorms 56 13.3 54 12.2 93 93 ESE 10 17 29.91 1013 5 8 0.22 5.59
11:52 pm 23:52 Cloudy with Strong Thunderstorms 56 13.3 54 12.2 93 93 SE 14 22 29.89 1012 4 6 0.26 6.60

Powered by AerisWeather